Time,TemperatureF,DewpointF,PressureIn,WindDirection,WindDirectionDegrees,WindSpeedMPH,WindSpeedGustMPH,Humidity,HourlyPrecipIn,Conditions,Clouds,dailyrainin,SoftwareType,DateUTC
2013-03-09 00:00:00,41.7,38.7,30.04,ESE,112,5.0,10.0,89,0.02,,,0.00,VWS V14.00,2013-03-09 06:00:00,
2013-03-09 00:05:00,41.9,38.6,30.04,ESE,112,6.0,10.0,88,0.01,,,0.00,VWS V14.00,2013-03-09 06:05:00,
2013-03-09 00:10:00,42.0,38.7,30.04,SE,135,6.0,11.0,88,0.01,,,0.00,VWS V14.00,2013-03-09 06:10:00,
2013-03-09 00:15:00,42.5,38.6,30.05,SE,135,7.0,11.0,86,0.01,,,0.00,VWS V14.00,2013-03-09 06:15:00,
2013-03-09 00:20:00,42.8,38.9,30.05,SE,135,6.0,11.0,86,0.01,,,0.00,VWS V14.00,2013-03-09 06:20:00,
2013-03-09 00:25:00,42.8,38.9,30.05,SE,135,5.0,12.0,86,0.02,,,0.01,VWS V14.00,2013-03-09 06:25:00,
2013-03-09 00:30:00,42.8,38.9,30.05,SE,135,7.0,12.0,86,0.02,,,0.01,VWS V14.00,2013-03-09 06:30:00,
2013-03-09 00:35:00,42.9,39.0,30.05,SE,135,7.0,13.0,86,0.02,,,0.01,VWS V14.00,2013-03-09 06:35:00,
2013-03-09 00:40:00,43.1,39.2,30.04,SE,135,8.0,13.0,86,0.02,,,0.01,VWS V14.00,2013-03-09 06:40:00,
2013-03-09 00:45:00,43.2,39.0,30.04,SE,135,5.0,11.0,85,0.01,,,0.01,VWS V14.00,2013-03-09 06:45:00,
2013-03-09 00:50:00,43.2,39.3,30.05,SE,135,7.0,14.0,86,0.01,,,0.01,VWS V14.00,2013-03-09 06:50:00,
2013-03-09 00:55:00,43.2,39.0,30.05,SE,135,6.0,14.0,85,0.01,,,0.01,VWS V14.00,2013-03-09 06:55:00,
2013-03-09 01:00:00,43.2,39.0,30.05,SE,135,5.0,12.0,85,0.01,,,0.01,VWS V14.00,2013-03-09 07:00:00,
2013-03-09 01:05:00,43.2,39.3,30.06,SE,135,4.0,7.0,86,0.01,,,0.01,VWS V14.00,2013-03-09 07:05:00,
2013-03-09 01:10:00,43.1,39.2,30.05,SE,135,6.0,10.0,86,0.01,,,0.01,VWS V14.00,2013-03-09 07:10:00,
2013-03-09 01:15:00,43.0,39.1,30.05,ESE,112,6.0,12.0,86,0.01,,,0.01,VWS V14.00,2013-03-09 07:15:00,
2013-03-09 01:20:00,42.9,39.3,30.05,SE,135,5.0,10.0,87,0.01,,,0.01,VWS V14.00,2013-03-09 07:20:00,
2013-03-09 01:25:00,42.7,39.1,30.05,SE,135,4.0,10.0,87,0.01,,,0.01,VWS V14.00,2013-03-09 07:25:00,
2013-03-09 01:30:00,42.5,38.9,30.04,ESE,112,5.0,11.0,87,0.00,,,0.01,VWS V14.00,2013-03-09 07:30:00,
2013-03-09 01:35:00,42.4,38.8,30.04,ESE,112,6.0,11.0,87,0.00,,,0.01,VWS V14.00,2013-03-09 07:35:00,
2013-03-09 01:40:00,42.3,39.0,30.04,SE,135,6.0,11.0,88,0.00,,,0.01,VWS V14.00,2013-03-09 07:40:00,
2013-03-09 01:45:00,42.3,39.0,30.04,SE,135,6.0,11.0,88,0.00,,,0.01,VWS V14.00,2013-03-09 07:45:00,
2013-03-09 01:50:00,42.3,39.0,30.04,SE,135,4.0,9.0,88,0.00,,,0.01,VWS V14.00,2013-03-09 07:50:00,
2013-03-09 01:55:00,42.4,39.1,30.04,SE,135,5.0,10.0,88,0.00,,,0.01,VWS V14.00,2013-03-09 07:55:00,
2013-03-09 02:00:00,42.4,39.1,30.03,SE,135,6.0,10.0,88,0.00,,,0.01,VWS V14.00,2013-03-09 08:00:00,
2013-03-09 02:05:00,42.4,39.1,30.02,SE,135,6.0,11.0,88,0.00,,,0.01,VWS V14.00,2013-03-09 08:05:00,
2013-03-09 02:10:00,42.5,39.2,30.02,SE,135,6.0,11.0,88,0.00,,,0.01,VWS V14.00,2013-03-09 08:10:00,
2013-03-09 02:15:00,42.4,39.1,30.02,SE,135,4.0,9.0,88,0.00,,,0.01,VWS V14.00,2013-03-09 08:15:00,
2013-03-09 02:20:00,42.4,39.1,30.01,SE,135,5.0,9.0,88,0.00,,,0.01,VWS V14.00,2013-03-09 08:20:00,
2013-03-09 02:25:00,42.3,39.0,30.01,SE,135,6.0,10.0,88,0.00,,,0.01,VWS V14.00,2013-03-09 08:25:00,
2013-03-09 02:30:00,42.2,39.2,30.00,SE,135,6.0,12.0,89,0.00,,,0.01,VWS V14.00,2013-03-09 08:30:00,
2013-03-09 02:35:00,42.1,39.1,30.00,SE,135,5.0,9.0,89,0.00,,,0.01,VWS V14.00,2013-03-09 08:35:00,
2013-03-09 02:40:00,42.1,39.1,30.00,SE,135,4.0,7.0,89,0.00,,,0.01,VWS V14.00,2013-03-09 08:40:00,
2013-03-09 02:45:00,42.1,39.1,30.00,SE,135,4.0,9.0,89,0.00,,,0.01,VWS V14.00,2013-03-09 08:45:00,
2013-03-09 02:50:00,42.0,39.0,29.99,SE,135,5.0,10.0,89,0.00,,,0.01,VWS V14.00,2013-03-09 08:50:00,
2013-03-09 02:55:00,41.9,38.9,29.99,ESE,112,4.0,7.0,89,0.00,,,0.01,VWS V14.00,2013-03-09 08:55:00,
2013-03-09 03:00:00,42.0,39.3,29.99,SE,135,5.0,8.0,90,0.00,,,0.01,VWS V14.00,2013-03-09 09:00:00,
2013-03-09 03:05:00,42.0,39.0,29.98,SE,135,5.0,10.0,89,0.00,,,0.01,VWS V14.00,2013-03-09 09:05:00,
2013-03-09 03:10:00,42.0,39.3,29.99,SE,135,4.0,10.0,90,0.00,,,0.01,VWS V14.00,2013-03-09 09:10:00,
2013-03-09 03:15:00,42.1,39.4,29.99,SE,135,3.0,8.0,90,0.00,,,0.01,VWS V14.00,2013-03-09 09:15:00,
2013-03-09 03:20:00,42.1,39.1,29.98,SE,135,3.0,8.0,89,0.00,,,0.01,VWS V14.00,2013-03-09 09:20:00,
2013-03-09 03:25:00,42.1,39.1,29.98,SE,135,2.0,6.0,89,0.00,,,0.01,VWS V14.00,2013-03-09 09:25:00,
2013-03-09 03:30:00,42.2,39.2,29.98,SE,135,2.0,7.0,89,0.00,,,0.01,VWS V14.00,2013-03-09 09:30:00,
2013-03-09 03:35:00,42.1,39.1,29.98,SE,135,4.0,7.0,89,0.00,,,0.01,VWS V14.00,2013-03-09 09:35:00,
2013-03-09 03:40:00,42.3,39.6,29.98,SE,135,3.0,6.0,90,0.00,,,0.01,VWS V14.00,2013-03-09 09:40:00,
2013-03-09 03:45:00,42.3,39.6,29.97,SE,135,4.0,8.0,90,0.00,,,0.01,VWS V14.00,2013-03-09 09:45:00,
2013-03-09 03:50:00,42.3,39.6,29.97,SE,135,4.0,9.0,90,0.00,,,0.01,VWS V14.00,2013-03-09 09:50:00,
2013-03-09 03:55:00,42.3,39.3,29.97,SE,135,5.0,8.0,89,0.00,,,0.01,VWS V14.00,2013-03-09 09:55:00,
2013-03-09 04:00:00,42.3,39.3,29.97,SE,135,3.0,8.0,89,0.00,,,0.01,VWS V14.00,2013-03-09 10:00:00,
2013-03-09 04:05:00,42.3,39.6,29.97,SE,135,3.0,8.0,90,0.00,,,0.01,VWS V14.00,2013-03-09 10:05:00,
2013-03-09 04:10:00,42.3,39.3,29.97,SE,135,4.0,8.0,89,0.00,,,0.01,VWS V14.00,2013-03-09 10:10:00,
2013-03-09 04:15:00,42.3,39.6,29.97,SE,135,5.0,9.0,90,0.00,,,0.01,VWS V14.00,2013-03-09 10:15:00,
2013-03-09 04:20:00,42.3,39.6,29.96,SE,135,3.0,9.0,90,0.00,,,0.01,VWS V14.00,2013-03-09 10:20:00,
2013-03-09 04:25:00,42.3,39.6,29.97,SE,135,4.0,8.0,90,0.00,,,0.01,VWS V14.00,2013-03-09 10:25:00,
2013-03-09 04:30:00,42.3,39.3,29.96,SE,135,4.0,9.0,89,0.00,,,0.01,VWS V14.00,2013-03-09 10:30:00,
2013-03-09 04:35:00,42.3,39.3,29.96,SE,135,5.0,9.0,89,0.00,,,0.01,VWS V14.00,2013-03-09 10:35:00,
2013-03-09 04:40:00,42.3,39.6,29.95,SE,135,4.0,10.0,90,0.00,,,0.01,VWS V14.00,2013-03-09 10:40:00,
2013-03-09 04:45:00,42.4,39.4,29.95,SE,135,4.0,9.0,89,0.00,,,0.01,VWS V14.00,2013-03-09 10:45:00,
2013-03-09 04:50:00,42.4,39.4,29.95,SE,135,5.0,10.0,89,0.00,,,0.01,VWS V14.00,2013-03-09 10:50:00,
2013-03-09 04:55:00,42.4,39.4,29.95,SE,135,5.0,10.0,89,0.00,,,0.01,VWS V14.00,2013-03-09 10:55:00,
2013-03-09 05:00:00,42.5,39.5,29.95,SE,135,5.0,13.0,89,0.00,,,0.01,VWS V14.00,2013-03-09 11:00:00,
2013-03-09 05:05:00,42.7,39.7,29.94,SE,135,6.0,11.0,89,0.00,,,0.01,VWS V14.00,2013-03-09 11:05:00,
2013-03-09 05:10:00,42.8,39.8,29.94,SE,135,5.0,10.0,89,0.00,,,0.01,VWS V14.00,2013-03-09 11:10:00,
2013-03-09 05:15:00,42.8,39.5,29.94,SE,135,5.0,11.0,88,0.00,,,0.01,VWS V14.00,2013-03-09 11:15:00,
2013-03-09 05:20:00,42.8,39.5,29.94,SE,135,6.0,12.0,88,0.00,,,0.01,VWS V14.00,2013-03-09 11:20:00,
2013-03-09 05:25:00,42.8,39.5,29.94,SE,135,4.0,9.0,88,0.00,,,0.01,VWS V14.00,2013-03-09 11:25:00,
2013-03-09 05:30:00,42.8,39.5,29.94,SE,135,6.0,10.0,88,0.00,,,0.01,VWS V14.00,2013-03-09 11:30:00,
2013-03-09 05:35:00,42.9,39.6,29.94,SE,135,5.0,11.0,88,0.00,,,0.01,VWS V14.00,2013-03-09 11:35:00,
2013-03-09 05:40:00,42.9,39.6,29.94,SE,135,5.0,10.0,88,0.00,,,0.01,VWS V14.00,2013-03-09 11:40:00,
2013-03-09 05:45:00,42.8,39.5,29.94,SE,135,5.0,10.0,88,0.00,,,0.01,VWS V14.00,2013-03-09 11:45:00,
2013-03-09 05:50:00,42.9,39.6,29.93,SE,135,6.0,14.0,88,0.00,,,0.01,VWS V14.00,2013-03-09 11:50:00,
2013-03-09 05:55:00,42.8,39.5,29.93,SE,135,6.0,12.0,88,0.00,,,0.01,VWS V14.00,2013-03-09 11:55:00,
2013-03-09 06:00:00,42.8,39.5,29.92,SE,135,6.0,12.0,88,0.00,,,0.01,VWS V14.00,2013-03-09 12:00:00,
2013-03-09 06:05:00,42.8,39.5,29.93,SE,135,6.0,10.0,88,0.00,,,0.01,VWS V14.00,2013-03-09 12:05:00,
2013-03-09 06:10:00,42.9,39.6,29.93,SE,135,6.0,11.0,88,0.00,,,0.01,VWS V14.00,2013-03-09 12:10:00,
2013-03-09 06:15:00,42.9,39.6,29.92,SE,135,6.0,9.0,88,0.00,,,0.01,VWS V14.00,2013-03-09 12:15:00,
2013-03-09 06:20:00,42.9,39.6,29.92,SE,135,6.0,9.0,88,0.00,,,0.01,VWS V14.00,2013-03-09 12:20:00,
2013-03-09 06:25:00,42.9,39.6,29.92,SSE,158,5.0,9.0,88,0.00,,,0.01,VWS V14.00,2013-03-09 12:25:00,
2013-03-09 06:32:00,42.9,39.6,29.92,SSE,158,5.0,9.0,88,0.00,,,0.01,VWS V14.00,2013-03-09 12:32:00,
2013-03-09 06:35:00,42.8,39.5,29.92,SSE,147,8.0,9.0,88,0.00,,,0.01,VWS V14.00,2013-03-09 12:35:00,
2013-03-09 06:37:00,42.8,39.5,29.92,South,172,4.0,9.0,88,0.00,,,0.01,VWS V14.00,2013-03-09 12:37:00,
2013-03-09 06:40:00,42.8,39.5,29.92,SE,125,8.0,9.0,88,0.00,,,0.01,VWS V14.00,2013-03-09 12:40:00,
2013-03-09 06:42:00,42.9,39.6,29.92,SE,138,5.0,11.0,88,0.00,,,0.01,VWS V14.00,2013-03-09 12:42:00,
2013-03-09 06:45:00,42.9,39.6,29.91,ESE,117,5.0,11.0,88,0.00,,,0.01,VWS V14.00,2013-03-09 12:45:00,
2013-03-09 06:47:00,42.9,39.6,29.91,SE,141,6.0,8.0,88,0.00,,,0.01,VWS V14.00,2013-03-09 12:47:00,
2013-03-09 06:50:00,42.9,39.6,29.91,SE,125,6.0,8.0,88,0.00,,,0.01,VWS V14.00,2013-03-09 12:50:00,
2013-03-09 06:52:00,42.9,39.6,29.91,ESE,114,1.0,9.0,88,0.00,,,0.01,VWS V14.00,2013-03-09 12:52:00,
2013-03-09 06:55:00,42.9,39.6,29.91,SE,131,4.0,11.0,88,0.00,,,0.01,VWS V14.00,2013-03-09 12:55:00,
2013-03-09 06:57:00,42.9,39.6,29.91,ESE,118,5.0,9.0,88,0.00,,,0.01,VWS V14.00,2013-03-09 12:57:00,
2013-03-09 07:00:00,43.0,39.4,29.91,SE,136,5.0,9.0,87,0.00,,,0.01,VWS V14.00,2013-03-09 13:00:00,
2013-03-09 07:02:00,43.0,39.4,29.91,SSE,149,0.0,8.0,87,0.00,,,0.01,VWS V14.00,2013-03-09 13:02:00,
2013-03-09 07:05:00,43.0,39.4,29.91,SE,141,4.0,9.0,87,0.00,,,0.01,VWS V14.00,2013-03-09 13:05:00,
2013-03-09 07:07:00,43.1,39.5,29.91,SE,143,4.0,11.0,87,0.00,,,0.01,VWS V14.00,2013-03-09 13:07:00,
2013-03-09 07:10:00,43.2,39.6,29.91,SE,146,8.0,11.0,87,0.00,,,0.01,VWS V14.00,2013-03-09 13:10:00,
2013-03-09 07:12:00,43.3,39.4,29.91,SE,143,3.0,15.0,86,0.00,,,0.01,VWS V14.00,2013-03-09 13:12:00,
2013-03-09 07:15:00,43.4,39.5,29.91,SSE,162,8.0,15.0,86,0.00,,,0.01,VWS V14.00,2013-03-09 13:15:00,
2013-03-09 07:17:00,43.4,39.2,29.91,SSW,192,8.0,11.0,85,0.00,,,0.01,VWS V14.00,2013-03-09 13:17:00,
2013-03-09 07:20:00,43.5,39.3,29.91,SSE,153,13.0,15.0,85,0.00,,,0.01,VWS V14.00,2013-03-09 13:20:00,
2013-03-09 07:22:00,43.6,39.4,29.91,SSE,155,8.0,15.0,85,0.00,,,0.01,VWS V14.00,2013-03-09 13:22:00,
2013-03-09 07:25:00,43.8,39.6,29.91,SE,141,6.0,15.0,85,0.00,,,0.01,VWS V14.00,2013-03-09 13:25:00,
2013-03-09 07:27:00,43.9,39.7,29.91,SSE,151,8.0,10.0,85,0.01,,,0.02,VWS V14.00,2013-03-09 13:27:00,
2013-03-09 07:30:00,43.9,39.4,29.90,SSE,167,6.0,12.0,84,0.01,,,0.02,VWS V14.00,2013-03-09 13:30:00,
2013-03-09 07:32:00,44.0,39.5,29.90,SSE,161,8.0,13.0,84,0.01,,,0.02,VWS V14.00,2013-03-09 13:32:00,
2013-03-09 07:35:00,44.0,39.5,29.90,SE,139,8.0,15.0,84,0.01,,,0.02,VWS V14.00,2013-03-09 13:35:00,
2013-03-09 07:37:00,44.2,39.7,29.90,SE,137,3.0,13.0,84,0.01,,,0.02,VWS V14.00,2013-03-09 13:37:00,
2013-03-09 07:40:00,44.3,39.8,29.90,SE,127,5.0,13.0,84,0.01,,,0.02,VWS V14.00,2013-03-09 13:40:00,
2013-03-09 07:42:00,44.4,39.6,29.90,South,175,5.0,9.0,83,0.01,,,0.02,VWS V14.00,2013-03-09 13:42:00,
2013-03-09 07:45:00,44.6,39.8,29.90,SSE,155,9.0,14.0,83,0.01,,,0.02,VWS V14.00,2013-03-09 13:45:00,
2013-03-09 07:47:00,44.7,39.9,29.90,SSE,151,12.0,12.0,83,0.01,,,0.02,VWS V14.00,2013-03-09 13:47:00,
2013-03-09 07:50:00,44.7,39.9,29.90,SSE,154,7.0,13.0,83,0.01,,,0.02,VWS V14.00,2013-03-09 13:50:00,
2013-03-09 07:52:00,44.8,39.7,29.90,South,181,6.0,12.0,82,0.01,,,0.02,VWS V14.00,2013-03-09 13:52:00,
2013-03-09 07:55:00,44.8,39.7,29.90,ESE,115,5.0,13.0,82,0.01,,,0.02,VWS V14.00,2013-03-09 13:55:00,
2013-03-09 07:57:00,44.8,39.7,29.89,South,169,10.0,10.0,82,0.01,,,0.02,VWS V14.00,2013-03-09 13:57:00,
2013-03-09 08:00:00,44.9,39.8,29.89,SSE,163,11.0,14.0,82,0.01,,,0.02,VWS V14.00,2013-03-09 14:00:00,
2013-03-09 08:02:00,45.0,39.8,29.89,SE,145,8.0,14.0,82,0.01,,,0.02,VWS V14.00,2013-03-09 14:02:00,
2013-03-09 08:05:00,45.1,39.9,29.89,SE,133,12.0,14.0,82,0.01,,,0.02,VWS V14.00,2013-03-09 14:05:00,
2013-03-09 08:07:00,45.3,39.8,29.89,SSE,159,11.0,17.0,81,0.01,,,0.02,VWS V14.00,2013-03-09 14:07:00,
2013-03-09 08:10:00,45.6,39.8,29.89,SSE,148,9.0,17.0,80,0.01,,,0.02,VWS V14.00,2013-03-09 14:10:00,
2013-03-09 08:12:00,45.6,39.8,29.89,SSE,150,6.0,13.0,80,0.01,,,0.02,VWS V14.00,2013-03-09 14:12:00,
2013-03-09 08:15:00,45.6,40.1,29.89,SSE,162,2.0,15.0,81,0.01,,,0.02,VWS V14.00,2013-03-09 14:15:00,
2013-03-09 08:17:00,45.5,39.7,29.89,ESE,121,12.0,17.0,80,0.01,,,0.02,VWS V14.00,2013-03-09 14:17:00,
2013-03-09 08:20:00,45.6,39.8,29.89,SSE,150,6.0,17.0,80,0.01,,,0.02,VWS V14.00,2013-03-09 14:20:00,
2013-03-09 08:22:00,45.6,39.8,29.89,SSE,155,12.0,13.0,80,0.01,,,0.02,VWS V14.00,2013-03-09 14:22:00,
2013-03-09 08:25:00,45.6,39.8,29.88,SSE,155,12.0,15.0,80,0.01,,,0.02,VWS V14.00,2013-03-09 14:25:00,
2013-03-09 08:27:00,45.7,39.9,29.89,SE,136,8.0,13.0,80,0.01,,,0.02,VWS V14.00,2013-03-09 14:27:00,
2013-03-09 08:30:00,45.8,40.0,29.88,South,180,7.0,13.0,80,0.01,,,0.02,VWS V14.00,2013-03-09 14:30:00,
2013-03-09 08:32:00,45.8,40.0,29.88,SSE,152,7.0,15.0,80,0.00,,,0.02,VWS V14.00,2013-03-09 14:32:00,
2013-03-09 08:35:00,45.9,40.1,29.88,SSE,156,8.0,15.0,80,0.00,,,0.02,VWS V14.00,2013-03-09 14:35:00,
2013-03-09 08:37:00,45.9,40.1,29.88,SE,133,2.0,14.0,80,0.00,,,0.02,VWS V14.00,2013-03-09 14:37:00,
2013-03-09 08:40:00,45.9,40.1,29.88,SE,139,11.0,14.0,80,0.00,,,0.02,VWS V14.00,2013-03-09 14:40:00,
2013-03-09 08:42:00,46.0,40.2,29.88,SSE,147,16.0,16.0,80,0.00,,,0.02,VWS V14.00,2013-03-09 14:42:00,
2013-03-09 08:45:00,46.1,40.3,29.88,SE,135,12.0,16.0,80,0.00,,,0.02,VWS V14.00,2013-03-09 14:45:00,
2013-03-09 08:47:00,46.1,40.0,29.87,SSE,161,5.0,12.0,79,0.00,,,0.02,VWS V14.00,2013-03-09 14:47:00,
2013-03-09 08:50:00,46.2,40.4,29.87,ESE,110,7.0,19.0,80,0.00,,,0.02,VWS V14.00,2013-03-09 14:50:00,
2013-03-09 08:52:00,46.2,40.4,29.87,SE,135,10.0,12.0,80,0.00,,,0.02,VWS V14.00,2013-03-09 14:52:00,
2013-03-09 08:55:00,46.3,40.2,29.87,SE,137,11.0,17.0,79,0.00,,,0.02,VWS V14.00,2013-03-09 14:55:00,
2013-03-09 08:57:00,46.4,40.2,29.87,ESE,118,12.0,17.0,79,0.00,,,0.02,VWS V14.00,2013-03-09 14:57:00,
2013-03-09 09:00:00,46.5,40.3,29.86,SE,132,6.0,17.0,79,0.00,,,0.02,VWS V14.00,2013-03-09 15:00:00,
2013-03-09 09:02:00,46.5,40.3,29.86,SE,145,10.0,18.0,79,0.00,,,0.02,VWS V14.00,2013-03-09 15:02:00,
2013-03-09 09:05:00,46.5,40.3,29.86,SE,143,10.0,18.0,79,0.00,,,0.02,VWS V14.00,2013-03-09 15:05:00,
2013-03-09 09:07:00,46.6,40.5,29.86,SSE,157,15.0,15.0,79,0.00,,,0.02,VWS V14.00,2013-03-09 15:07:00,
2013-03-09 09:10:00,46.6,40.5,29.86,ESE,116,8.0,15.0,79,0.00,,,0.02,VWS V14.00,2013-03-09 15:10:00,
2013-03-09 09:12:00,46.7,40.2,29.86,SSE,160,9.0,16.0,78,0.00,,,0.02,VWS V14.00,2013-03-09 15:12:00,
2013-03-09 09:15:00,46.7,40.2,29.86,SE,131,11.0,16.0,78,0.00,,,0.02,VWS V14.00,2013-03-09 15:15:00,
2013-03-09 09:17:00,46.8,40.3,29.86,ESE,123,9.0,18.0,78,0.00,,,0.02,VWS V14.00,2013-03-09 15:17:00,
2013-03-09 09:20:00,46.8,40.3,29.85,SSE,153,9.0,18.0,78,0.00,,,0.02,VWS V14.00,2013-03-09 15:20:00,
2013-03-09 09:22:00,46.9,40.4,29.85,SE,139,14.0,15.0,78,0.00,,,0.02,VWS V14.00,2013-03-09 15:22:00,
2013-03-09 09:25:00,47.0,40.5,29.85,SSE,166,13.0,17.0,78,0.00,,,0.02,VWS V14.00,2013-03-09 15:25:00,
2013-03-09 09:27:00,47.1,40.3,29.85,SSE,147,7.0,17.0,77,0.00,,,0.02,VWS V14.00,2013-03-09 15:27:00,
2013-03-09 09:30:00,47.1,40.6,29.85,SSE,153,11.0,17.0,78,0.00,,,0.02,VWS V14.00,2013-03-09 15:30:00,
2013-03-09 09:32:00,47.3,40.5,29.86,SSE,168,6.0,13.0,77,0.00,,,0.02,VWS V14.00,2013-03-09 15:32:00,
2013-03-09 09:35:00,47.3,40.5,29.86,SSE,151,8.0,13.0,77,0.00,,,0.02,VWS V14.00,2013-03-09 15:35:00,
2013-03-09 09:37:00,47.4,40.6,29.86,SSE,165,11.0,17.0,77,0.00,,,0.02,VWS V14.00,2013-03-09 15:37:00,
2013-03-09 09:40:00,47.5,40.7,29.86,SE,134,12.0,17.0,77,0.00,,,0.02,VWS V14.00,2013-03-09 15:40:00,
2013-03-09 09:42:00,47.5,40.7,29.85,SSE,158,9.0,13.0,77,0.00,,,0.02,VWS V14.00,2013-03-09 15:42:00,
2013-03-09 09:45:00,47.5,40.7,29.85,SE,146,11.0,13.0,77,0.00,,,0.02,VWS V14.00,2013-03-09 15:45:00,
2013-03-09 09:47:00,47.6,40.8,29.85,SE,133,12.0,17.0,77,0.00,,,0.02,VWS V14.00,2013-03-09 15:47:00,
2013-03-09 09:50:00,47.6,40.8,29.85,SSE,147,17.0,17.0,77,0.00,,,0.02,VWS V14.00,2013-03-09 15:50:00,
2013-03-09 09:52:00,47.7,40.8,29.84,SE,144,14.0,19.0,77,0.00,,,0.02,VWS V14.00,2013-03-09 15:52:00,
2013-03-09 09:55:00,47.7,40.8,29.84,SE,141,12.0,19.0,77,0.00,,,0.02,VWS V14.00,2013-03-09 15:55:00,
2013-03-09 09:57:00,47.7,40.8,29.84,ESE,119,9.0,16.0,77,0.00,,,0.02,VWS V14.00,2013-03-09 15:57:00,
2013-03-09 10:00:00,47.7,40.8,29.84,SE,137,9.0,16.0,77,0.00,,,0.02,VWS V14.00,2013-03-09 16:00:00,
2013-03-09 10:02:00,47.8,41.0,29.84,ESE,123,16.0,20.0,77,0.00,,,0.02,VWS V14.00,2013-03-09 16:02:00,
2013-03-09 10:05:00,47.9,41.0,29.83,SE,135,15.0,20.0,77,0.00,,,0.02,VWS V14.00,2013-03-09 16:05:00,
2013-03-09 10:07:00,47.9,41.0,29.83,SE,139,13.0,16.0,77,0.00,,,0.02,VWS V14.00,2013-03-09 16:07:00,
2013-03-09 10:10:00,48.0,41.2,29.83,SE,135,7.0,16.0,77,0.00,,,0.02,VWS V14.00,2013-03-09 16:10:00,
2013-03-09 10:12:00,48.1,40.9,29.83,SSE,162,14.0,15.0,76,0.00,,,0.02,VWS V14.00,2013-03-09 16:12:00,
2013-03-09 10:15:00,48.2,41.0,29.83,SE,133,11.0,15.0,76,0.00,,,0.02,VWS V14.00,2013-03-09 16:15:00,
2013-03-09 10:17:00,48.3,41.1,29.83,SE,135,17.0,17.0,76,0.00,,,0.02,VWS V14.00,2013-03-09 16:17:00,
2013-03-09 10:20:00,48.6,41.4,29.83,SSE,156,6.0,20.0,76,0.00,,,0.02,VWS V14.00,2013-03-09 16:20:00,
2013-03-09 10:22:00,48.7,41.1,29.83,SE,127,6.0,15.0,75,0.00,,,0.02,VWS V14.00,2013-03-09 16:22:00,
2013-03-09 10:25:00,48.8,41.6,29.83,SE,145,6.0,15.0,76,0.00,,,0.02,VWS V14.00,2013-03-09 16:25:00,
2013-03-09 10:27:00,48.9,41.7,29.82,SSE,162,8.0,15.0,76,0.00,,,0.02,VWS V14.00,2013-03-09 16:27:00,
2013-03-09 10:30:00,49.0,41.4,29.82,SSE,147,9.0,15.0,75,0.00,,,0.02,VWS V14.00,2013-03-09 16:30:00,
2013-03-09 10:32:00,49.2,41.6,29.82,ESE,119,4.0,11.0,75,0.00,,,0.02,VWS V14.00,2013-03-09 16:32:00,
2013-03-09 10:35:00,49.3,41.7,29.82,ESE,118,8.0,13.0,75,0.00,,,0.02,VWS V14.00,2013-03-09 16:35:00,
2013-03-09 10:37:00,49.4,41.8,29.82,ESE,117,4.0,11.0,75,0.00,,,0.02,VWS V14.00,2013-03-09 16:37:00,
2013-03-09 10:40:00,49.5,41.9,29.81,SE,141,5.0,13.0,75,0.00,,,0.02,VWS V14.00,2013-03-09 16:40:00,
2013-03-09 10:42:00,49.6,42.0,29.81,SSE,166,11.0,17.0,75,0.00,,,0.02,VWS V14.00,2013-03-09 16:42:00,
2013-03-09 10:45:00,49.7,42.1,29.81,ESE,119,7.0,17.0,75,0.00,,,0.02,VWS V14.00,2013-03-09 16:45:00,
2013-03-09 10:47:00,49.9,42.0,29.81,ESE,122,7.0,15.0,74,0.00,,,0.02,VWS V14.00,2013-03-09 16:47:00,
2013-03-09 10:50:00,50.1,42.2,29.81,SSE,151,12.0,15.0,74,0.00,,,0.02,VWS V14.00,2013-03-09 16:50:00,
2013-03-09 10:52:00,50.3,42.0,29.81,SE,144,10.0,15.0,73,0.00,,,0.02,VWS V14.00,2013-03-09 16:52:00,
2013-03-09 10:55:00,50.5,42.2,29.81,SSE,158,4.0,15.0,73,0.00,,,0.02,VWS V14.00,2013-03-09 16:55:00,
2013-03-09 10:57:00,50.6,42.3,29.81,SE,143,7.0,12.0,73,0.00,,,0.02,VWS V14.00,2013-03-09 16:57:00,
2013-03-09 11:00:00,50.7,42.4,29.81,SE,143,12.0,15.0,73,0.00,,,0.02,VWS V14.00,2013-03-09 17:00:00,
2013-03-09 11:02:00,50.9,42.6,29.82,SSE,158,8.0,15.0,73,0.00,,,0.02,VWS V14.00,2013-03-09 17:02:00,
2013-03-09 11:05:00,51.1,42.4,29.82,South,172,7.0,15.0,72,0.00,,,0.02,VWS V14.00,2013-03-09 17:05:00,
2013-03-09 11:07:00,51.3,42.6,29.82,SSE,155,7.0,11.0,72,0.00,,,0.02,VWS V14.00,2013-03-09 17:07:00,
2013-03-09 11:10:00,51.6,42.9,29.82,SW,220,8.0,13.0,72,0.00,,,0.02,VWS V14.00,2013-03-09 17:10:00,
2013-03-09 11:12:00,52.0,42.9,29.81,SSE,160,5.0,10.0,71,0.00,,,0.02,VWS V14.00,2013-03-09 17:12:00,
2013-03-09 11:15:00,52.4,43.3,29.81,South,187,7.0,12.0,71,0.00,,,0.02,VWS V14.00,2013-03-09 17:15:00,
2013-03-09 11:17:00,52.7,43.6,29.81,SSE,160,13.0,14.0,71,0.00,,,0.02,VWS V14.00,2013-03-09 17:17:00,
2013-03-09 11:20:00,53.1,44.0,29.81,SSE,167,7.0,14.0,71,0.00,,,0.02,VWS V14.00,2013-03-09 17:20:00,
2013-03-09 11:22:00,53.3,43.8,29.81,SSE,153,7.0,11.0,70,0.00,,,0.02,VWS V14.00,2013-03-09 17:22:00,
2013-03-09 11:25:00,53.6,43.7,29.81,South,169,10.0,17.0,69,0.00,,,0.02,VWS V14.00,2013-03-09 17:25:00,
2013-03-09 11:27:00,53.7,43.8,29.81,SSE,147,8.0,17.0,69,0.00,,,0.02,VWS V14.00,2013-03-09 17:27:00,
2013-03-09 11:30:00,53.8,43.9,29.80,SSE,162,12.0,17.0,69,0.00,,,0.02,VWS V14.00,2013-03-09 17:30:00,
2013-03-09 11:32:00,53.9,44.0,29.80,SSE,156,8.0,13.0,69,0.00,,,0.02,VWS V14.00,2013-03-09 17:32:00,
2013-03-09 11:35:00,54.0,43.7,29.80,SSE,164,9.0,13.0,68,0.00,,,0.02,VWS V14.00,2013-03-09 17:35:00,
2013-03-09 11:37:00,54.1,43.8,29.80,SSE,154,9.0,10.0,68,0.00,,,0.02,VWS V14.00,2013-03-09 17:37:00,
2013-03-09 11:40:00,54.2,43.9,29.80,SSE,162,11.0,13.0,68,0.00,,,0.02,VWS V14.00,2013-03-09 17:40:00,
2013-03-09 11:42:00,54.2,43.9,29.80,SSE,158,9.0,13.0,68,0.00,,,0.02,VWS V14.00,2013-03-09 17:42:00,
2013-03-09 11:45:00,54.2,43.5,29.80,SSE,158,9.0,15.0,67,0.00,,,0.02,VWS V14.00,2013-03-09 17:45:00,
2013-03-09 11:47:00,54.3,44.4,29.80,South,181,2.0,11.0,69,0.00,,,0.02,VWS V14.00,2013-03-09 17:47:00,
2013-03-09 11:50:00,54.6,44.3,29.80,SSE,158,7.0,12.0,68,0.00,,,0.00,VWS V14.00,2013-03-09 17:50:00,
2013-03-09 11:55:00,55.3,44.5,29.79,SSE,158,7.0,15.0,67,0.00,,,0.00,VWS V14.00,2013-03-09 17:55:00,
2013-03-09 12:00:00,55.8,44.6,29.79,SSE,158,9.0,14.0,66,0.00,,,0.00,VWS V14.00,2013-03-09 18:00:00,
2013-03-09 12:10:00,57.1,45.0,29.79,SSE,150,4.0,9.0,64,0.00,,,0.02,VWS V14.00,2013-03-09 18:10:00,
2013-03-09 12:15:00,57.8,44.9,29.78,SSE,168,8.0,15.0,62,0.00,,,0.02,VWS V14.00,2013-03-09 18:15:00,
2013-03-09 12:20:00,58.4,45.9,29.78,SSE,160,6.0,13.0,63,0.00,,,0.02,VWS V14.00,2013-03-09 18:20:00,
2013-03-09 12:25:00,58.8,45.4,29.77,South,173,8.0,11.0,61,0.00,,,0.02,VWS V14.00,2013-03-09 18:25:00,
2013-03-09 12:30:00,58.8,45.0,29.77,South,180,7.0,13.0,60,0.00,,,0.02,VWS V14.00,2013-03-09 18:30:00,
2013-03-09 12:35:00,59.0,45.6,29.77,South,176,6.0,11.0,61,0.00,,,0.02,VWS V14.00,2013-03-09 18:35:00,
2013-03-09 12:40:00,59.2,45.3,29.76,SSE,157,7.0,14.0,60,0.00,,,0.02,VWS V14.00,2013-03-09 18:40:00,
2013-03-09 12:45:00,58.9,45.1,29.76,SSE,161,5.0,11.0,60,0.00,,,0.02,VWS V14.00,2013-03-09 18:45:00,
2013-03-09 12:50:00,59.1,45.2,29.76,SSW,205,6.0,10.0,60,0.00,,,0.02,VWS V14.00,2013-03-09 18:50:00,
2013-03-09 12:55:00,59.1,45.2,29.76,South,179,5.0,9.0,60,0.02,,,0.02,VWS V14.00,2013-03-09 18:55:00,
2013-03-09 13:00:00,59.3,45.4,29.75,SSE,151,6.0,9.0,60,0.02,,,0.02,VWS V14.00,2013-03-09 19:00:00,
2013-03-09 13:05:00,59.7,45.8,29.75,SE,146,5.0,7.0,60,0.02,,,0.02,VWS V14.00,2013-03-09 19:05:00,
2013-03-09 13:10:00,60.0,46.5,29.75,South,172,7.0,8.0,61,0.00,,,0.02,VWS V14.00,2013-03-09 19:10:00,
2013-03-09 13:15:00,60.3,45.9,29.74,South,180,7.0,11.0,59,0.00,,,0.02,VWS V14.00,2013-03-09 19:15:00,
2013-03-09 13:20:00,60.8,46.0,29.74,SSE,149,6.0,10.0,58,0.00,,,0.02,VWS V14.00,2013-03-09 19:20:00,
2013-03-09 13:25:00,61.2,45.9,29.73,SSE,164,8.0,13.0,57,0.00,,,0.02,VWS V14.00,2013-03-09 19:25:00,
2013-03-09 13:30:00,61.3,46.0,29.73,South,183,6.0,10.0,57,0.00,,,0.02,VWS V14.00,2013-03-09 19:30:00,
2013-03-09 13:35:00,61.0,45.7,29.73,South,183,7.0,12.0,57,0.00,,,0.02,VWS V14.00,2013-03-09 19:35:00,
2013-03-09 13:40:00,60.8,45.5,29.73,South,186,5.0,10.0,57,0.00,,,0.02,VWS V14.00,2013-03-09 19:40:00,
2013-03-09 13:45:00,60.6,45.8,29.73,South,185,5.0,7.0,58,0.00,,,0.02,VWS V14.00,2013-03-09 19:45:00,
2013-03-09 13:50:00,60.5,46.1,29.72,South,172,3.0,8.0,59,0.00,,,0.02,VWS V14.00,2013-03-09 19:50:00,
2013-03-09 13:55:00,60.5,46.1,29.72,South,191,1.0,6.0,59,0.00,,,0.02,VWS V14.00,2013-03-09 19:55:00,
2013-03-09 14:00:00,60.6,46.7,29.71,South,182,3.0,4.0,60,0.00,,,0.02,VWS V14.00,2013-03-09 20:00:00,
2013-03-09 14:05:00,60.7,46.3,29.71,SSE,153,3.0,5.0,59,0.00,,,0.02,VWS V14.00,2013-03-09 20:05:00,
2013-03-09 14:10:00,60.8,46.4,29.71,SSE,158,3.0,4.0,59,0.00,,,0.02,VWS V14.00,2013-03-09 20:10:00,
2013-03-09 14:15:00,60.9,46.9,29.71,SSE,150,1.0,5.0,60,0.00,,,0.02,VWS V14.00,2013-03-09 20:15:00,
2013-03-09 14:20:00,60.9,46.9,29.71,SSE,150,1.0,3.0,60,0.00,,,0.02,VWS V14.00,2013-03-09 20:20:00,
2013-03-09 14:25:00,60.8,46.8,29.70,SSE,150,0.0,3.0,60,0.00,,,0.02,VWS V14.00,2013-03-09 20:25:00,
2013-03-09 14:30:00,60.7,47.6,29.70,SSE,150,0.0,2.0,62,0.00,,,0.02,VWS V14.00,2013-03-09 20:30:00,
2013-03-09 14:35:00,60.6,47.1,29.70,SSE,150,0.0,0.0,61,0.00,,,0.02,VWS V14.00,2013-03-09 20:35:00,
2013-03-09 14:40:00,60.6,47.5,29.70,SSE,150,0.0,0.0,62,0.00,,,0.02,VWS V14.00,2013-03-09 20:40:00,
2013-03-09 14:45:00,60.5,47.9,29.70,SSE,150,0.0,0.0,63,0.00,,,0.02,VWS V14.00,2013-03-09 20:45:00,
2013-03-09 14:50:00,60.3,47.7,29.70,SSE,150,1.0,2.0,63,0.00,,,0.02,VWS V14.00,2013-03-09 20:50:00,
2013-03-09 14:55:00,60.2,47.6,29.70,SE,131,1.0,4.0,63,0.00,,,0.02,VWS V14.00,2013-03-09 20:55:00,
2013-03-09 15:00:00,60.3,47.7,29.70,SE,131,0.0,3.0,63,0.00,,,0.02,VWS V14.00,2013-03-09 21:00:00,
2013-03-09 15:05:00,60.3,47.7,29.70,SE,146,0.0,4.0,63,0.00,,,0.02,VWS V14.00,2013-03-09 21:05:00,
2013-03-09 15:10:00,60.3,47.7,29.70,SSE,168,1.0,2.0,63,0.00,,,0.02,VWS V14.00,2013-03-09 21:10:00,
2013-03-09 15:15:00,60.3,48.1,29.70,SSE,165,1.0,3.0,64,0.00,,,0.02,VWS V14.00,2013-03-09 21:15:00,
2013-03-09 15:20:00,60.2,47.6,29.69,SSE,150,3.0,4.0,63,0.00,,,0.02,VWS V14.00,2013-03-09 21:20:00,
2013-03-09 15:25:00,60.1,47.9,29.69,SSE,161,2.0,4.0,64,0.00,,,0.02,VWS V14.00,2013-03-09 21:25:00,
2013-03-09 15:30:00,60.1,47.9,29.69,SSE,161,2.0,5.0,64,0.00,,,0.02,VWS V14.00,2013-03-09 21:30:00,
2013-03-09 15:35:00,60.2,48.0,29.69,SE,125,5.0,6.0,64,0.00,,,0.02,VWS V14.00,2013-03-09 21:35:00,
2013-03-09 15:40:00,60.2,47.6,29.69,SSE,153,3.0,7.0,63,0.00,,,0.02,VWS V14.00,2013-03-09 21:40:00,
2013-03-09 15:45:00,60.4,47.3,29.69,SE,144,4.0,5.0,62,0.00,,,0.02,VWS V14.00,2013-03-09 21:45:00,
2013-03-09 15:50:00,60.5,47.9,29.69,SSE,153,3.0,7.0,63,0.00,,,0.02,VWS V14.00,2013-03-09 21:50:00,
2013-03-09 15:55:00,60.6,48.0,29.69,SSE,156,2.0,4.0,63,0.00,,,0.02,VWS V14.00,2013-03-09 21:55:00,
2013-03-09 16:00:00,60.7,47.6,29.68,SSE,151,0.0,3.0,62,0.00,,,0.02,VWS V14.00,2013-03-09 22:00:00,
2013-03-09 16:05:00,60.7,47.2,29.69,SE,137,0.0,4.0,61,0.00,,,0.02,VWS V14.00,2013-03-09 22:05:00,
2013-03-09 16:10:00,60.8,47.7,29.68,SSE,148,0.0,3.0,62,0.00,,,0.02,VWS V14.00,2013-03-09 22:10:00,
2013-03-09 16:15:00,60.7,47.6,29.68,South,173,0.0,2.0,62,0.00,,,0.02,VWS V14.00,2013-03-09 22:15:00,
2013-03-09 16:20:00,60.4,47.3,29.68,North,355,3.0,4.0,62,0.00,,,0.02,VWS V14.00,2013-03-09 22:20:00,
2013-03-09 16:25:00,60.0,47.4,29.68,NNW,338,3.0,6.0,63,0.00,,,0.02,VWS V14.00,2013-03-09 22:25:00,
2013-03-09 16:30:00,59.4,46.8,29.68,NNW,338,2.0,4.0,63,0.00,,,0.02,VWS V14.00,2013-03-09 22:30:00,
2013-03-09 16:35:00,58.9,47.2,29.68,North,4,0.0,4.0,65,0.00,,,0.02,VWS V14.00,2013-03-09 22:35:00,
2013-03-09 16:40:00,58.3,46.6,29.68,NNE,19,0.0,5.0,65,0.00,,,0.02,VWS V14.00,2013-03-09 22:40:00,
2013-03-09 16:45:00,57.8,46.1,29.68,NNE,19,0.0,4.0,65,0.00,,,0.02,VWS V14.00,2013-03-09 22:45:00,
2013-03-09 16:50:00,57.5,46.2,29.68,NNE,19,0.0,0.0,66,0.00,,,0.02,VWS V14.00,2013-03-09 22:50:00,
2013-03-09 16:55:00,57.0,46.6,29.67,ENE,60,0.0,2.0,68,0.00,,,0.02,VWS V14.00,2013-03-09 22:55:00,
2013-03-09 17:00:00,56.7,45.9,29.67,East,81,0.0,3.0,67,0.00,,,0.02,VWS V14.00,2013-03-09 23:00:00,
2013-03-09 17:05:00,56.5,46.1,29.67,ENE,74,0.0,3.0,68,0.00,,,0.02,VWS V14.00,2013-03-09 23:05:00,
2013-03-09 17:10:00,56.4,46.0,29.66,ENE,74,0.0,1.0,68,0.00,,,0.02,VWS V14.00,2013-03-09 23:10:00,
2013-03-09 17:15:00,56.2,46.2,29.66,NE,38,0.0,4.0,69,0.00,,,0.02,VWS V14.00,2013-03-09 23:15:00,
2013-03-09 17:20:00,56.0,46.0,29.66,North,360,3.0,5.0,69,0.00,,,0.02,VWS V14.00,2013-03-09 23:20:00,
2013-03-09 17:25:00,55.7,45.7,29.67,North,360,0.0,4.0,69,0.00,,,0.02,VWS V14.00,2013-03-09 23:25:00,
2013-03-09 17:30:00,55.3,45.7,29.67,NW,323,4.0,6.0,70,0.00,,,0.02,VWS V14.00,2013-03-09 23:30:00,
2013-03-09 17:35:00,54.7,45.5,29.67,NW,324,4.0,5.0,71,0.00,,,0.02,VWS V14.00,2013-03-09 23:35:00,
2013-03-09 17:40:00,54.2,45.0,29.67,NNW,338,2.0,5.0,71,0.00,,,0.02,VWS V14.00,2013-03-09 23:40:00,
2013-03-09 17:45:00,53.9,44.7,29.67,NW,326,0.0,5.0,71,0.00,,,0.02,VWS V14.00,2013-03-09 23:45:00,
2013-03-09 17:50:00,53.4,44.2,29.67,NNW,338,5.0,7.0,71,0.00,,,0.02,VWS V14.00,2013-03-09 23:50:00,
2013-03-09 17:55:00,52.6,43.8,29.68,NNW,327,0.0,7.0,72,0.00,,,0.02,VWS V14.00,2013-03-09 23:55:00,
2013-03-09 18:00:00,52.1,44.1,29.68,NW,323,1.0,5.0,74,0.00,,,0.02,VWS V14.00,2013-03-10 00:00:00,
2013-03-09 18:05:00,51.8,44.1,29.68,NW,316,6.0,6.0,75,0.00,,,0.02,VWS V14.00,2013-03-10 00:05:00,
2013-03-09 18:10:00,51.7,44.0,29.68,WNW,282,6.0,7.0,75,0.00,,,0.02,VWS V14.00,2013-03-10 00:10:00,
2013-03-09 18:15:00,51.3,43.7,29.68,NW,305,0.0,7.0,75,0.00,,,0.02,VWS V14.00,2013-03-10 00:15:00,
2013-03-09 18:20:00,51.1,43.8,29.68,NNW,333,1.0,6.0,76,0.00,,,0.02,VWS V14.00,2013-03-10 00:20:00,
2013-03-09 18:25:00,50.7,43.8,29.68,NW,315,4.0,5.0,77,0.00,,,0.02,VWS V14.00,2013-03-10 00:25:00,
2013-03-09 18:30:00,50.5,43.6,29.68,North,1,0.0,5.0,77,0.00,,,0.02,VWS V14.00,2013-03-10 00:30:00,
2013-03-09 18:35:00,50.4,43.8,29.68,NE,41,3.0,7.0,78,0.00,,,0.02,VWS V14.00,2013-03-10 00:35:00,
2013-03-09 18:40:00,50.3,44.0,29.68,NE,37,5.0,6.0,79,0.00,,,0.02,VWS V14.00,2013-03-10 00:40:00,
2013-03-09 18:45:00,50.3,44.0,29.68,ENE,57,5.0,5.0,79,0.00,,,0.02,VWS V14.00,2013-03-10 00:45:00,
2013-03-09 18:50:00,50.3,44.0,29.67,ENE,57,5.0,5.0,79,0.00,,,0.02,VWS V14.00,2013-03-10 00:50:00,
2013-03-09 18:55:00,50.4,43.8,29.67,NE,52,4.0,4.0,78,0.00,,,0.02,VWS V14.00,2013-03-10 00:55:00,
2013-03-09 19:00:00,50.4,43.8,29.67,NE,35,3.0,7.0,78,0.00,,,0.02,VWS V14.00,2013-03-10 01:00:00,
2013-03-09 19:05:00,50.4,43.8,29.68,North,10,2.0,2.0,78,0.00,,,0.02,VWS V14.00,2013-03-10 01:05:00,
2013-03-09 19:10:00,50.4,43.8,29.68,North,2,3.0,4.0,78,0.00,,,0.02,VWS V14.00,2013-03-10 01:10:00,
2013-03-09 19:15:00,50.1,43.8,29.69,NNW,327,3.0,5.0,79,0.00,,,0.02,VWS V14.00,2013-03-10 01:15:00,
2013-03-09 19:20:00,49.6,44.7,29.69,North,4,4.0,8.0,83,0.02,,,0.04,VWS V14.00,2013-03-10 01:20:00,
2013-03-09 19:25:00,49.1,44.8,29.69,NE,39,1.0,2.0,85,0.02,,,0.04,VWS V14.00,2013-03-10 01:25:00,
2013-03-09 19:32:00,48.7,45.0,29.69,ENE,57,2.0,2.0,87,0.03,,,0.05,VWS V14.00,2013-03-10 01:32:00,
2013-03-09 21:30:00,46.0,44.1,29.68,ENE,68,5.0,7.0,93,0.39,,,0.56,VWS V14.00,2013-03-10 03:30:00,
2013-03-09 21:35:00,46.0,44.1,29.68,East,90,4.0,7.0,93,0.42,,,0.59,VWS V14.00,2013-03-10 03:35:00,
2013-03-09 21:40:00,46.2,44.3,29.68,ENE,68,4.0,8.0,93,0.43,,,0.60,VWS V14.00,2013-03-10 03:40:00,
2013-03-09 21:45:00,46.3,44.4,29.69,ENE,68,1.0,5.0,93,0.44,,,0.62,VWS V14.00,2013-03-10 03:45:00,
2013-03-09 21:50:00,46.4,44.8,29.70,ENE,68,0.0,3.0,94,0.47,,,0.65,VWS V14.00,2013-03-10 03:50:00,
2013-03-09 21:55:00,46.4,44.8,29.71,ENE,68,2.0,4.0,94,0.54,,,0.72,VWS V14.00,2013-03-10 03:55:00,
2013-03-09 22:00:00,46.4,44.5,29.69,East,90,2.0,5.0,93,0.64,,,0.82,VWS V14.00,2013-03-10 04:00:00,
2013-03-09 22:05:00,46.5,44.9,29.69,East,90,4.0,6.0,94,0.63,,,0.88,VWS V14.00,2013-03-10 04:05:00,
2013-03-09 22:10:00,47.0,45.4,29.68,East,90,5.0,8.0,94,0.94,,,0.99,VWS V14.00,2013-03-10 04:10:00,
2013-03-09 22:15:00,47.4,45.8,29.67,East,90,6.0,9.0,94,0.95,,,1.01,VWS V14.00,2013-03-10 04:15:00,
2013-03-09 22:20:00,47.8,46.2,29.68,ESE,112,5.0,8.0,94,0.96,,,1.02,VWS V14.00,2013-03-10 04:20:00,
2013-03-09 22:25:00,48.3,46.7,29.67,ESE,112,7.0,11.0,94,0.74,,,1.04,VWS V14.00,2013-03-10 04:25:00,
2013-03-09 22:30:00,48.8,47.2,29.67,ESE,112,8.0,15.0,94,0.75,,,1.05,VWS V14.00,2013-03-10 04:30:00,
2013-03-09 22:35:00,49.2,47.5,29.67,ESE,112,11.0,18.0,94,0.76,,,1.06,VWS V14.00,2013-03-10 04:35:00,
2013-03-09 22:40:00,49.5,47.8,29.66,ESE,112,10.0,16.0,94,0.76,,,1.07,VWS V14.00,2013-03-10 04:40:00,
2013-03-09 22:45:00,50.3,48.6,29.64,ESE,112,11.0,17.0,94,0.76,,,1.07,VWS V14.00,2013-03-10 04:45:00,
2013-03-09 22:50:00,50.8,49.1,29.64,ESE,112,9.0,14.0,94,0.76,,,1.07,VWS V14.00,2013-03-10 04:50:00,
2013-03-09 22:55:00,51.3,49.6,29.63,ESE,112,9.0,17.0,94,0.75,,,1.07,VWS V14.00,2013-03-10 04:55:00,
2013-03-09 23:00:00,51.8,50.4,29.60,East,90,12.0,18.0,95,0.73,,,0.00,VWS V14.00,2013-03-10 05:00:00,
2013-03-09 23:05:00,52.6,50.9,29.58,ESE,112,15.0,24.0,94,0.66,,,0.00,VWS V14.00,2013-03-10 05:05:00,
2013-03-09 23:10:00,52.8,51.4,29.59,ESE,112,11.0,21.0,95,0.62,,,0.00,VWS V14.00,2013-03-10 05:10:00,
2013-03-09 23:15:00,53.2,51.8,29.61,SE,135,10.0,20.0,95,0.61,,,0.00,VWS V14.00,2013-03-10 05:15:00,
2013-03-09 23:20:00,53.3,51.9,29.61,SE,135,10.0,18.0,95,0.60,,,0.00,VWS V14.00,2013-03-10 05:20:00,
2013-03-09 23:25:00,53.2,51.8,29.61,SE,135,8.0,16.0,95,0.59,,,0.00,VWS V14.00,2013-03-10 05:25:00,
2013-03-09 23:30:00,52.9,51.5,29.61,SE,135,8.0,13.0,95,0.57,,,0.00,VWS V14.00,2013-03-10 05:30:00,
2013-03-09 23:35:00,52.8,51.4,29.60,ESE,112,8.0,13.0,95,0.51,,,0.00,VWS V14.00,2013-03-10 05:35:00,
2013-03-09 23:40:00,52.7,51.0,29.60,ESE,112,7.0,12.0,94,0.48,,,0.00,VWS V14.00,2013-03-10 05:40:00,
2013-03-09 23:45:00,52.6,50.9,29.61,SE,135,7.0,12.0,94,0.47,,,0.00,VWS V14.00,2013-03-10 05:45:00,
2013-03-09 23:50:00,52.6,50.9,29.61,SE,135,5.0,10.0,94,0.45,,,0.00,VWS V14.00,2013-03-10 05:50:00,
2013-03-09 23:55:00,52.5,50.8,29.60,ESE,112,6.0,11.0,94,0.42,,,0.00,VWS V14.00,2013-03-10 05:55:00,